STARLINK-3820, 52364

Orbit data source: Space-Track

STARLINK-3820, 52364 is a payload satellite owned by SpaceX/Seattle (US) in LEO that was launched on Fri, 29 Apr 2022 UTC via an FALCON 9 launch vehicle from the Air Force Eastern Test Range (AFETR). Payload-class satellites include a variety of spacecraft equipped with specific instruments for various scientific and technological missions. These include communications satellites like Starlink; space stations such as the ISS; scientific satellites like the Hubble; Earth observation satellites from companies like Planet Labs, Umbra, and HawkEye 360; GPS; miniature CubeSats for education and research; and military/defense satellites.

Loading next visibility...
Identifier
52364, 2022-045AK
Orbit
LEO
Country
Flag of USUS
Related business
Manufacturer
SpaceX/Seattle
Mission
Operational Commercial Communications
Bus & Motor
STARLINK, Unknown motor
Mass
297 kg wet, ~275 kg dry
Launch date (UTC)
2022-04-29 (4 years ago)
Launch vehicle
FALCON 9
Launch site
Air Force Eastern Test Range (AFETR)
Object type
Payload
Rocket body
Debris
Shape & HBR
Box + 1 Pan, 10.1 m
Radar Cross Section
11.087 m², Large (>1 m²)

Expand to show TLE details & history
Last TLE update: 3 days ago

TLE from 3 days ago
0 STARLINK-3820
1 52364U 22045AK  26170.91298522 -.00000650  00000-0 -22728-4 0  9995
2 52364  53.1622  90.0245 0001475  94.6536 265.4624 15.08836727231351
Epoch: 2026-06-19T21:54Z
TLE epoch observation values (Epoch: 2026-06-19T21:54:41.923Z)
Latitude
0.00001°
Longitude
-146.78532°
Altitude
540.726 km
Speed
7.593 km/s
True Right ascension
06h 00m 05s
True Declination
0° 00' 00"
Sunlit
Object was in daylight at epoch
Visualization orbit readout
Latitude
Unknown
Longitude
Unknown
Altitude
Unknown
Speed
Unknown
Apparent Right ascension
Unknown
Apparent Declination
Unknown
Sunlit
N/A
Visualization observer readout
Local Sidereal Time
21:36:02
Azimuth
Unknown
Elevation
Unknown
Doppler factor
Unknown
Orbital elements
Apogee altitude
541.028 km
Perigee altitude
538.987 km
Semi-major axis
6,918.144 km
Eccentricity
0.00015
Inclination
53.1622°
RAAN
90.0245°
Arg. of periapsis
94.6536°
True anomaly
265.44555°
Mean anomaly
265.4624°
Eccentric anomaly
265.45398°
Mean motion
3.77189 °/min
Orbital period
95.44 mins
BSTAR
-0.000022728
Loading maneuver chart data...
Computing Atmospheric mass density...
Loading historical data...
Loading historical data...
Loading historical data...
Loading historical data...
Loading historical data...
Loading historical data...
Loading historical data...

Documentation

Showing up to 5 results
|